Location: ????? ????
(37.9717°N, 23.4051°E)
Time: 15:18:15
(UTC+00:00)

Cosmos 2333 Rocket - Pass Details

Date: 18 April 2024
Orbit: 840 x 862 km, 70.8° (Epoch: 18 May)

Event Time Altitude Azimuth Distance (km) Brightness Sun altitude
Exits shadow 23:03:46 24° 5° (N) 1,689 4.2 -40.0°
Drops below altitude 10° 23:05:58 10° 14° (NNE) 2,461 5.3 -39.9°
Sets 23:08:29 0° 19° (NNE) 3,400 6.2 -39.7°
